Regional Weather Roundup
Issued by NWS Green Bay, WI

Home | Current Version | Previous Version | Graphics & Text | Print | Product List | Glossary Off
Versions: 1 2 3 4 5 6 7 8 9 10 11 12 13 14 15 16 17 18 19 20 21 22 23 24 25 26 27 28 29 30 31 32 33 34 35 36 37 38 39 40 41 42 43 44 45 46 47 48 49 50

000
ASUS43 KGRB 252259
RWRGRB

NORTH-CENTRAL AND NORTHEAST WISCONSIN REGIONAL WEATHER ROUNDUP
NATIONAL WEATHER SERVICE GREEN BAY WI
500 PM CST TUE NOV 25 2014

WIZ005-009-010>012-018-019-260000-
NORTH CENTRAL WISCONSIN

CITY           SKY/WX    TMP DP  RH WIND       PRES   REMARKS
IRONWOOD       CLEAR     14   9  79 SW3       29.97R
MANITOWISH WTR NOT AVBL
ARBOR VITAE    NOT AVBL
EAGLE RIVER    NOT AVBL
LAND O LAKES   NOT AVBL
RHINELANDER    CLEAR     11   7  84 SW5       30.00R WCI   3
PHILLIPS       NOT AVBL
ANTIGO         NOT AVBL
TOMAHAWK       NOT AVBL
MERRILL        NOT AVBL
$$

WIZ013-073-260000-
NORTHEAST WISCONSIN

CITY           SKY/WX    TMP DP  RH WIND       PRES   REMARKS
IRON MOUNTAIN  CLEAR     15   9  76 CALM      30.00R
MARINETTE      MOCLDY    25  16  68 W5        30.06R
$$

WIZ017-030-035>037-045-260000-
CENTRAL WISCONSIN

CITY           SKY/WX    TMP DP  RH WIND       PRES   REMARKS
MEDFORD        NOT AVBL
WAUSAU         CLEAR     17  11  77 W5        30.05R WCI  10
MOSINEE        NOT AVBL
MARSHFIELD     CLEAR     19  11  70 W5        30.05R
WISC RAPIDS    CLEAR     17  12  80 S3        30.09R
STEVENS POINT  NOT AVBL
WAUPACA        NOT AVBL
SHAWANO        NOT AVBL
CLINTONVILLE   NOT AVBL
$$

WIZ038-039-048-051-260000-
FOX VALLEY

CITY           SKY/WX    TMP DP  RH WIND       PRES   REMARKS
NWS GREEN BAY  CLOUDY    22  16  78 SW8       30.10R
APPLETON       CLOUDY    21  16  79 VRB5      30.09R
OSHKOSH        CLOUDY    21  15  78 SW5       30.10R
FOND DU LAC    CLOUDY    21  14  74 W7        30.12R
$$

WIZ022-050-052-260000-
EAST CENTRAL WISCONSIN

CITY           SKY/WX    TMP DP  RH WIND       PRES   REMARKS
STURGEON BAY   CLOUDY    25  16  68 SW8       30.08R
MANITOWOC      NOT AVBL
SHEBOYGAN      CLOUDY    22  15  75 W6        30.11S
$$

LMZ563-521-522-541>543-260000-
LAKESHORE

STATION/POSITION TIME  TEMP    WIND        PRES    VSBY  WAVE
                       AIR SEA DIR/SP/G                  HT/PER
                 (UTC) (F)     (DEG/KT/KT) (MB)    (MI)  (FT/S)
SHEBOYGAN LKSHOR 2200   23 36  260/  8/  9 1021.0R
KEWAUNEE LKSHORE 2200   23     250/  3/  7 1018.2R
TWO RIVERS CG    2200   22                 1019.5      6   1
NORTHPORT PIER   2200   26     260/  3/  5 1017.9R
N MID LAKE BUOY  2200   28 42  270/ 12/ 16 1017.9R         2/ 4
STURGEON BAY CG  2200   24     230/  4     1018.8      6   1
CHAMBERS ISLAND  2200   26     210/  2/  6 1017.9R
MENOMINEE LKSHOR 2200   26     210/  3/  6 1018.5R
$$


USA.gov is the U.S. government's official web portal to all federal, state and local government web resources and services.